Location: Newark
(49.2191°N, 12.6671°E)
Time: 13:43:52
(UTC+00:00)

Transit 4A - Pass Details

Date: 01 February 2020
Orbit: 872 x 973 km, 66.8° (Epoch: 22 February)

Event Time Altitude Azimuth Distance (km) Brightness Sun altitude
Rises 09:01:48 0° 311° (NW) 3,488 10.3 16.6°
Reaches altitude 10° 09:05:39 10° 336° (NNW) 2,537 9.7 16.9°
Maximum altitude 09:08:42 14° 8° (N) 2,239 9.6 17.2°
Drops below altitude 10° 09:11:45 10° 39° (NE) 2,530 10.1 17.5°
Sets 09:15:34 0° 64° (ENE) 3,471 11.0 17.8°
